When you browse on this site, cookies collect data to enhance your experience and personalize the content and advertising you see.
Visit our Privacy Policy to learn more. By continuing to use the site, you agree to this use of cookies and data.

Hourly Weather Belize

Today, 9 August, Sunday

Time Temperature Precipitation Wind Pressure Humidity
00:00 +27°C° 0 mm 6 mps 761 mmHg 97%
01:00 +27°C° 0.6 mm 6 mps 760 mmHg 97%
02:00 +26°C° 0.6 mm 6 mps 760 mmHg 98%
03:00 +26°C° 0.6 mm 6 mps 759 mmHg 98%
04:00 +26°C° 0.4 mm 6 mps 760 mmHg 98%
05:00 +26°C° 0.4 mm 6 mps 760 mmHg 98%
06:00 +27°C° 0 mm 6 mps 760 mmHg 98%
07:00 +28°C° 0.8 mm 6 mps 761 mmHg 97%
08:00 +29°C° 0.8 mm 6 mps 761 mmHg 96%
09:00 +30°C° 0.8 mm 6 mps 761 mmHg 95%
10:00 +30°C° 0.8 mm 6 mps 761 mmHg 95%
11:00 +30°C° 0.8 mm 6 mps 761 mmHg 94%
12:00 +30°C° 0.8 mm 5 mps 761 mmHg 94%
13:00 +30°C° 1.2 mm 6 mps 760 mmHg 94%
14:00 +30°C° 1.2 mm 6 mps 759 mmHg 95%
15:00 +30°C° 1.2 mm 6 mps 759 mmHg 95%
16:00 +29°C° 0.5 mm 6 mps 759 mmHg 96%
17:00 +28°C° 0.5 mm 6 mps 759 mmHg 96%
18:00 +28°C° 0.5 mm 6 mps 760 mmHg 97%
19:00 +27°C° 0.3 mm 6 mps 760 mmHg 97%
20:00 +27°C° 0.3 mm 6 mps 761 mmHg 98%
21:00 +27°C° 0.3 mm 7 mps 761 mmHg 98%
22:00 +27°C° 0.2 mm 6 mps 761 mmHg 98%
23:00 +27°C° 0.2 mm 6 mps 761 mmHg 98%

Tomorrow, 10 August, Monday

Time Temperature Precipitation Wind Pressure Humidity
00:00 +27°C° 0.2 mm 6 mps 761 mmHg 98%
01:00 +27°C° 0.1 mm 6 mps 760 mmHg 98%
02:00 +27°C° 0.1 mm 6 mps 759 mmHg 98%
03:00 +27°C° 0.1 mm 6 mps 759 mmHg 98%
04:00 +27°C° 0.2 mm 6 mps 759 mmHg 98%
05:00 +27°C° 0.2 mm 6 mps 759 mmHg 98%
06:00 +27°C° 0.2 mm 6 mps 759 mmHg 98%
07:00 +28°C° 1.5 mm 6 mps 759 mmHg 97%
08:00 +29°C° 1.5 mm 6 mps 760 mmHg 96%
09:00 +30°C° 1.5 mm 6 mps 760 mmHg 95%
10:00 +30°C° 2.8 mm 6 mps 760 mmHg 95%
11:00 +30°C° 2.8 mm 6 mps 760 mmHg 95%
12:00 +30°C° 2.8 mm 6 mps 760 mmHg 95%
13:00 +29°C° 1.6 mm 6 mps 760 mmHg 95%
14:00 +29°C° 1.6 mm 6 mps 759 mmHg 96%
15:00 +29°C° 1.6 mm 6 mps 759 mmHg 96%
16:00 +29°C° 0.8 mm 6 mps 759 mmHg 96%
17:00 +28°C° 0.8 mm 5 mps 759 mmHg 97%
18:00 +27°C° 0.8 mm 5 mps 759 mmHg 97%
19:00 +27°C° 0.7 mm 5 mps 759 mmHg 97%
20:00 +26°C° 0.7 mm 4 mps 759 mmHg 98%
21:00 +26°C° 0.7 mm 4 mps 760 mmHg 98%
22:00 +26°C° 0.5 mm 5 mps 759 mmHg 98%
23:00 +26°C° 0.5 mm 5 mps 759 mmHg 99%

Day after tomorrow, 11 August, Tuesday

Time Temperature Precipitation Wind Pressure Humidity
00:00 +26°C° 0.5 mm 5 mps 759 mmHg 99%
01:00 +26°C° 0.2 mm 5 mps 759 mmHg 99%
02:00 +26°C° 0.2 mm 5 mps 758 mmHg 98%
03:00 +26°C° 0.2 mm 5 mps 758 mmHg 98%
04:00 +26°C° 0.1 mm 4 mps 758 mmHg 98%
05:00 +26°C° 0.1 mm 4 mps 758 mmHg 98%
06:00 +26°C° 0.1 mm 4 mps 758 mmHg 98%
07:00 +27°C° 0.1 mm 4 mps 759 mmHg 96%
08:00 +29°C° 0.1 mm 4 mps 759 mmHg 93%
09:00 +30°C° 0.1 mm 4 mps 759 mmHg 90%
10:00 +32°C° 0.5 mm 4 mps 759 mmHg 82%
11:00 +33°C° 0.5 mm 4 mps 759 mmHg 74%
12:00 +34°C° 0.5 mm 4 mps 759 mmHg 66%
13:00 +34°C° 0.1 mm 4 mps 759 mmHg 64%
14:00 +35°C° 0.1 mm 4 mps 758 mmHg 62%
15:00 +35°C° 0.1 mm 4 mps 757 mmHg 60%
16:00 +33°C° 0.1 mm 4 mps 757 mmHg 69%
17:00 +32°C° 0.1 mm 4 mps 758 mmHg 77%
18:00 +29°C° 0.1 mm 4 mps 758 mmHg 85%
19:00 +28°C° 0 mm 4 mps 758 mmHg 89%
20:00 +27°C° 0 mm 4 mps 758 mmHg 93%
21:00 +26°C° 0 mm 4 mps 759 mmHg 98%
22:00 +26°C° 0.4 mm 4 mps 759 mmHg 98%
23:00 +26°C° 0.4 mm 4 mps 759 mmHg 98%

12 August, Wednesday

Time Temperature Precipitation Wind Pressure Humidity
00:00 +26°C° 0.4 mm 4 mps 758 mmHg 98%
01:00 +26°C° 0.4 mm 4 mps 758 mmHg 98%
02:00 +26°C° 0.4 mm 3 mps 758 mmHg 98%
03:00 +26°C° 0.4 mm 3 mps 757 mmHg 98%
04:00 +26°C° 0.2 mm 3 mps 758 mmHg 98%
05:00 +26°C° 0.2 mm 3 mps 758 mmHg 99%
06:00 +26°C° 0.2 mm 3 mps 758 mmHg 99%
07:00 +27°C° 0.6 mm 3 mps 758 mmHg 93%
08:00 +29°C° 0.6 mm 4 mps 759 mmHg 87%
09:00 +30°C° 0.6 mm 4 mps 759 mmHg 81%
10:00 +30°C° 1 mm 4 mps 759 mmHg 84%
11:00 +30°C° 1 mm 4 mps 759 mmHg 87%
12:00 +30°C° 1 mm 4 mps 759 mmHg 90%
13:00 +32°C° 0.4 mm 4 mps 758 mmHg 80%
14:00 +33°C° 0.4 mm 4 mps 758 mmHg 71%
15:00 +34°C° 0.4 mm 4 mps 757 mmHg 62%
16:00 +33°C° 0 mm 3 mps 757 mmHg 69%
17:00 +30°C° 0 mm 3 mps 757 mmHg 75%
18:00 +29°C° 0 mm 3 mps 757 mmHg 82%
19:00 +28°C° 0.1 mm 4 mps 758 mmHg 87%
20:00 +27°C° 0.1 mm 4 mps 758 mmHg 92%
21:00 +26°C° 0.1 mm 4 mps 759 mmHg 96%
22:00 +26°C° 0.8 mm 4 mps 759 mmHg 97%
23:00 +26°C° 0.8 mm 3 mps 758 mmHg 98%

13 August, Thursday

Time Temperature Precipitation Wind Pressure Humidity
00:00 +25°C° 0.8 mm 3 mps 758 mmHg 98%
01:00 +25°C° 0.5 mm 3 mps 758 mmHg 98%
02:00 +25°C° 0.5 mm 2 mps 758 mmHg 98%
03:00 +25°C° 0.5 mm 2 mps 757 mmHg 99%
04:00 +25°C° 0.5 mm 2 mps 758 mmHg 98%
05:00 +25°C° 0.5 mm 2 mps 758 mmHg 98%
06:00 +25°C° 0.5 mm 2 mps 758 mmHg 98%
07:00 +26°C° 0.8 mm 2 mps 758 mmHg 95%
08:00 +28°C° 0.8 mm 2 mps 759 mmHg 92%
09:00 +29°C° 0.8 mm 2 mps 759 mmHg 89%
10:00 +29°C° 0.7 mm 3 mps 759 mmHg 89%
11:00 +29°C° 0.7 mm 3 mps 759 mmHg 90%
12:00 +29°C° 0.7 mm 3 mps 759 mmHg 90%
13:00 +30°C° 0.3 mm 3 mps 758 mmHg 83%
14:00 +31°C° 0.3 mm 3 mps 758 mmHg 76%
15:00 +33°C° 0.3 mm 4 mps 757 mmHg 69%
16:00 +31°C° 0.1 mm 3 mps 757 mmHg 75%
17:00 +29°C° 0.1 mm 3 mps 757 mmHg 81%
18:00 +28°C° 0.1 mm 3 mps 757 mmHg 87%
19:00 +27°C° 0 mm 3 mps 758 mmHg 90%
20:00 +27°C° 0 mm 3 mps 758 mmHg 93%
21:00 +26°C° 0 mm 3 mps 759 mmHg 97%
22:00 +25°C° 0.1 mm 3 mps 759 mmHg 97%
23:00 +25°C° 0.1 mm 3 mps 758 mmHg 98%

14 August, Friday

Time Temperature Precipitation Wind Pressure Humidity
00:00 +25°C° 0.1 mm 3 mps 758 mmHg 98%
01:00 +25°C° 0.1 mm 3 mps 758 mmHg 98%
02:00 +25°C° 0.1 mm 3 mps 757 mmHg 99%
03:00 +25°C° 0.1 mm 2 mps 757 mmHg 99%
04:00 +25°C° 0 mm 2 mps 757 mmHg 99%
05:00 +25°C° 0 mm 2 mps 757 mmHg 99%
06:00 +25°C° 0 mm 2 mps 758 mmHg 99%
07:00 +27°C° 0 mm 2 mps 758 mmHg 88%
08:00 +30°C° 0 mm 2 mps 758 mmHg 77%
09:00 +32°C° 0 mm 2 mps 759 mmHg 67%
10:00 +34°C° 0 mm 3 mps 759 mmHg 61%
11:00 +35°C° 0 mm 3 mps 758 mmHg 55%
12:00 +36°C° 0 mm 3 mps 758 mmHg 49%
13:00 +36°C° 0 mm 4 mps 758 mmHg 50%
14:00 +35°C° 0 mm 4 mps 757 mmHg 52%
15:00 +35°C° 0 mm 5 mps 756 mmHg 53%
16:00 +33°C° 0 mm 4 mps 757 mmHg 63%
17:00 +32°C° 0 mm 4 mps 757 mmHg 72%
18:00 +29°C° 0 mm 4 mps 757 mmHg 82%
19:00 +28°C° 0.4 mm 4 mps 758 mmHg 86%
20:00 +27°C° 0.4 mm 4 mps 758 mmHg 91%
21:00 +26°C° 0.4 mm 4 mps 758 mmHg 96%
22:00 +26°C° 0.4 mm 4 mps 758 mmHg 97%
23:00 +26°C° 0.4 mm 4 mps 758 mmHg 98%
Show more